TimeEST,TemperatureF,Dew PointF,Humidity,Sea Level PressureIn,VisibilityMPH,Wind Direction,Wind SpeedMPH,Gust SpeedMPH,PrecipitationIn,Events,Conditions,WindDirDegrees,DateUTC
12:53 AM,44.1,43.0,96,29.92,9.0,South,3.5,-,N/A,,Overcast,190,2012-12-03 05:53:00
1:53 AM,45.0,44.1,97,29.95,8.0,SSE,3.5,-,N/A,,Overcast,160,2012-12-03 06:53:00
2:53 AM,48.9,44.1,83,30.00,9.0,NW,6.9,-,0.00,Rain,Light Rain,310,2012-12-03 07:53:00
3:01 AM,48.2,44.6,87,30.00,10.0,NNW,5.8,-,0.00,Rain,Light Rain,330,2012-12-03 08:01:00
3:08 AM,48.2,44.6,87,30.00,10.0,NW,8.1,-,0.00,,Overcast,310,2012-12-03 08:08:00
3:48 AM,46.4,42.8,87,30.04,10.0,Calm,Calm,-,0.00,,Overcast,0,2012-12-03 08:48:00
3:53 AM,46.9,43.0,86,30.05,10.0,Calm,Calm,-,0.00,,Overcast,0,2012-12-03 08:53:00
4:53 AM,45.0,39.9,82,30.09,10.0,NNW,4.6,-,N/A,,Overcast,330,2012-12-03 09:53:00
5:53 AM,43.0,37.0,80,30.11,10.0,Calm,Calm,-,0.01,,Overcast,0,2012-12-03 10:53:00
6:30 AM,42.8,35.6,76,30.13,10.0,NNW,8.1,-,N/A,,Scattered Clouds,330,2012-12-03 11:30:00
6:53 AM,39.0,35.1,86,30.16,10.0,NNW,6.9,-,N/A,,Mostly Cloudy,340,2012-12-03 11:53:00
7:01 AM,37.4,33.8,87,30.15,10.0,NNW,6.9,-,N/A,,Scattered Clouds,330,2012-12-03 12:01:00
7:14 AM,39.2,35.6,87,30.16,10.0,WNW,3.5,-,N/A,,Mostly Cloudy,300,2012-12-03 12:14:00
7:53 AM,37.9,34.0,86,30.19,10.0,NNW,8.1,-,N/A,,Scattered Clouds,330,2012-12-03 12:53:00
8:53 AM,39.9,34.0,79,30.22,10.0,NW,4.6,-,N/A,,Mostly Cloudy,310,2012-12-03 13:53:00
9:07 AM,41.0,33.8,76,30.22,10.0,NW,4.6,-,N/A,,Mostly Cloudy,320,2012-12-03 14:07:00
10:53 AM,42.1,33.1,70,30.25,10.0,NW,6.9,-,N/A,,Overcast,320,2012-12-03 15:53:00
11:53 AM,42.1,34.0,73,30.24,10.0,NNW,4.6,-,N/A,,Overcast,330,2012-12-03 16:53:00
12:53 PM,42.1,34.0,73,30.23,10.0,NNW,4.6,-,N/A,,Overcast,340,2012-12-03 17:53:00
2:53 PM,42.1,34.0,73,30.24,10.0,ENE,3.5,-,N/A,,Overcast,70,2012-12-03 19:53:00
3:53 PM,41.0,34.0,76,30.26,10.0,Calm,Calm,-,N/A,,Overcast,0,2012-12-03 20:53:00
4:53 PM,41.0,34.0,76,30.26,10.0,ESE,3.5,-,N/A,,Overcast,110,2012-12-03 21:53:00
5:53 PM,39.0,35.1,86,30.25,10.0,Calm,Calm,-,N/A,,Overcast,0,2012-12-03 22:53:00
6:53 PM,39.0,35.1,86,30.26,10.0,Calm,Calm,-,N/A,,Overcast,0,2012-12-03 23:53:00
7:53 PM,37.9,36.0,93,30.25,10.0,Calm,Calm,-,N/A,,Overcast,0,2012-12-04 00:53:00
8:53 PM,39.0,35.1,86,30.26,10.0,Calm,Calm,-,N/A,,Overcast,0,2012-12-04 01:53:00
9:53 PM,39.9,35.1,83,30.25,10.0,Calm,Calm,-,N/A,,Overcast,0,2012-12-04 02:53:00
10:53 PM,37.9,35.1,89,30.24,10.0,Calm,Calm,-,N/A,,Overcast,0,2012-12-04 03:53:00
11:53 PM,39.0,35.1,86,30.23,10.0,SSW,3.5,-,N/A,,Overcast,210,2012-12-04 04:53:00